Theta_e
330 330 330 325 307 305 301 305 313 313 313 319 322 322 320 321 319 311 329 338 337 335 340 342 344 345 341 339 338 339 337 337 337 337 336 336 336 335 335 335 335 334 334 334 334 333 333 332 332
325 328 324 316 301 296 298 307 310 315 320 323 322 321 321 318 326 325 325 337 337 337 337 339 342 343 341 339 339 340 337 337 337 336 336 335 335 334 334 334 334 334 334 334 334 334 333 333 332
323 327 315 307 303 296 298 309 311 319 322 321 320 325 323 318 325 324 329 337 337 335 335 339 342 344 343 341 341 340 338 337 336 336 335 335 334 334 333 333 334 334 333 333 333 333 335 335 335
320 319 314 303 299 303 303 310 318 318 320 322 323 318 326 330 329 332 329 335 334 332 338 340 343 344 344 342 340 338 337 337 336 335 334 333 333 333 334 334 334 335 336 334 336 336 335 335 335
319 315 302 299 302 305 306 315 319 316 317 319 322 318 320 330 333 329 326 331 331 331 336 339 341 342 343 341 340 339 337 336 335 335 334 334 334 334 334 334 334 334 335 336 336 336 336 336 336
309 311 300 296 299 305 307 314 318 316 319 319 321 319 322 331 326 325 327 328 335 335 336 338 336 338 340 340 339 339 338 336 335 334 334 334 334 334 333 333 333 335 335 336 336 336 336 336 336
308 306 300 300 300 302 306 312 314 314 318 317 325 317 322 328 325 324 325 332 336 336 336 337 337 336 334 336 336 337 337 337 336 335 334 334 334 332 331 330 331 333 334 335 336 335 335 335 335
311 308 303 301 300 301 307 313 318 317 317 325 325 316 317 327 323 321 323 329 335 335 333 333 333 334 331 331 331 333 334 335 335 334 332 331 331 331 331 330 332 332 334 334 334 334 334 334 334
314 302 300 302 301 304 309 313 318 325 321 322 325 322 326 330 321 318 320 322 324 327 328 331 330 329 330 330 328 330 331 331 332 330 329 328 331 332 332 328 330 332 333 333 333 334 334 332 330
307 302 303 309 308 305 309 314 316 317 318 319 322 327 328 327 322 321 318 318 319 320 324 325 324 328 332 333 330 331 333 332 332 334 333 334 332 332 331 326 327 330 330 332 334 335 333 330 332
308 302 307 309 310 310 310 313 318 315 314 317 318 322 325 323 322 320 320 320 318 320 323 326 326 332 334 331 328 328 329 330 333 334 332 332 333 333 333 333 331 331 326 332 332 334 332 331 330
303 308 309 310 313 313 310 316 316 316 316 323 323 324 323 322 321 321 320 320 318 319 321 325 329 328 330 329 327 326 330 334 332 325 324 329 331 331 329 327 327 326 328 330 329 329 328 324 318
304 306 309 311 312 312 313 313 313 314 321 324 324 324 323 322 322 323 320 320 321 320 323 324 327 327 330 328 330 334 330 321 319 318 318 324 325 324 323 318 315 313 316 321 319 320 310 310 310
304 304 305 310 310 310 309 312 313 314 322 321 323 322 322 323 321 322 319 320 322 323 324 326 327 326 327 332 327 322 320 317 314 311 312 314 318 317 317 315 312 308 308 310 310 309 304 304 305
305 300 304 306 308 308 311 307 307 314 320 320 320 318 316 315 316 319 321 318 320 319 319 325 326 333 327 321 317 315 314 311 309 308 309 309 310 310 310 308 306 305 304 304 305 303 303 302 302
301 301 294 303 308 309 309 300 306 313 315 312 310 309 308 308 307 308 309 310 311 314 316 319 323 328 320 313 311 308 307 306 305 305 307 308 309 309 306 304 303 302 301 301 301 300 300 299 299
296 286 292 296 308 307 307 301 305 311 312 309 307 307 305 303 303 304 307 308 310 314 317 319 323 318 312 307 305 305 305 304 304 305 304 304 305 305 302 301 301 301 300 299 299 300 298 296 296
287 287 291 294 303 305 302 302 302 307 309 307 307 305 303 302 301 303 305 308 311 313 317 322 318 312 308 305 303 303 303 303 303 302 301 300 301 301 300 299 299 298 297 297 297 297 298 295 294
293 290 289 291 296 294 301 300 301 305 306 304 304 303 303 301 300 302 304 307 308 309 310 317 312 308 305 302 301 300 298 299 300 300 299 298 298 299 298 297 297 297 295 294 296 295 295 294 294
293 287 285 288 293 292 295 299 302 303 304 305 303 302 301 298 299 300 303 306 302 301 303 310 307 306 305 304 301 300 299 299 298 298 297 296 296 296 297 296 294 294 294 293 293 293 293 293 292
291 288 286 286 288 293 292 294 298 301 304 306 306 304 301 298 299 299 301 302 300 299 301 303 303 301 302 302 301 299 298 298 296 295 295 295 296 295 295 295 294 293 292 291 291 291 290 289 290
287 294 290 287 286 284 288 283 293 296 297 300 302 303 301 300 299 298 299 298 297 297 298 299 300 300 301 303 300 298 297 293 293 294 294 295 295 294 294 294 293 292 291 290 290 292 289 289 287
288 296 292 288 285 284 285 283 292 295 293 294 299 299 299 299 298 297 296 295 296 296 295 297 299 300 302 301 302 297 295 293 293 293 293 293 293 293 292 292 291 290 290 289 289 289 288 288 287
295 293 292 289 286 279 285 284 288 290 294 295 297 299 296 295 295 294 294 294 294 296 295 296 296 296 298 299 297 296 293 293 293 293 292 292 292 291 291 291 289 289 288 288 288 288 288 287 286
292 288 281 279 278 278 287 284 287 296 298 298 297 297 294 294 294 293 293 293 292 293 294 294 294 294 295 296 295 293 293 294 293 292 291 290 289 289 288 289 288 287 287 287 287 286 286 286 284
287 287 282 277 277 281 287 283 290 296 297 300 300 299 295 294 294 294 294 294 293 293 294 293 293 292 292 292 291 291 291 292 290 290 290 289 288 288 289 288 288 287 288 286 286 285 285 284 284
285 283 291 283 282 281 284 287 293 293 296 299 297 294 294 293 293 292 293 293 293 293 292 292 291 291 291 291 291 290 290 289 289 289 289 288 288 289 288 288 287 287 286 286 285 284 283 283 283
288 291 282 284 276 275 280 283 284 288 292 295 293 292 293 292 291 291 292 292 292 291 290 290 290 289 289 290 290 288 288 288 288 288 288 287 287 287 287 286 286 286 286 285 284 284 283 282 282
285 284 286 286 283 278 277 280 288 291 294 294 293 293 291 290 290 291 292 291 290 289 289 288 288 288 288 288 288 287 287 287 287 287 287 287 286 286 286 285 285 285 284 284 283 283 283 282 281
288 286 287 279 278 282 282 282 287 287 290 295 294 294 293 293 293 293 291 289 288 288 288 287 287 287 287 288 287 287 287 286 286 285 285 286 285 285 284 284 283 283 283 282 282 281 282 281 280
Wind_Speed
17 9 7 2 3 4 9 7 6 8 5 5 8 9 12 12 6 6 3 18 19 14 12 11 13 13 15 15 15 14 14 14 14 14 13 13 13 13 13 13 12 11 11 11 11 11 11 10 10
9 10 2 4 4 7 8 10 6 8 9 9 7 5 6 8 6 6 6 18 17 14 13 12 13 14 15 15 14 13 14 14 13 13 13 13 12 12 12 11 11 10 11 10 10 10 10 9 9
10 13 3 4 5 11 9 9 9 12 10 8 5 10 7 5 11 9 9 20 17 14 14 12 13 15 15 15 14 13 13 13 12 12 12 11 11 11 10 10 9 8 9 8 8 9 9 9 9
5 4 5 6 10 17 17 7 17 11 5 6 15 10 6 9 8 7 11 21 14 13 14 12 13 15 16 14 14 14 13 13 12 11 10 10 9 9 8 8 7 8 8 8 9 8 9 9 9
4 5 7 8 13 13 13 4 14 12 8 7 11 7 7 4 12 14 12 12 13 16 14 10 11 14 16 14 14 14 13 12 11 10 9 8 7 7 6 7 7 7 7 8 9 9 9 9 9
4 5 9 13 15 16 9 7 8 10 13 6 10 10 4 1 12 12 12 11 14 14 11 10 11 14 14 14 13 13 12 10 9 8 8 7 6 5 5 5 5 6 6 6 7 7 7 7 7
10 9 14 14 16 16 7 4 7 9 10 6 19 7 5 4 10 10 9 15 15 15 12 10 11 11 12 11 11 11 10 9 8 6 6 4 3 2 1 1 1 4 5 6 6 7 6 7 6
9 9 19 18 15 15 7 9 9 9 4 5 5 9 8 9 13 9 9 14 17 14 13 12 10 9 7 5 9 10 10 8 7 5 3 2 4 5 5 3 2 3 5 6 6 6 6 7 8
12 11 13 18 20 12 10 10 7 9 10 9 6 3 19 16 12 8 7 7 9 8 8 12 11 9 9 7 6 8 8 7 6 5 5 6 4 6 4 4 0 2 4 4 5 5 6 9 10
7 8 15 18 15 14 8 13 9 7 13 10 12 15 20 15 12 8 8 9 8 7 8 3 5 8 7 8 7 6 6 4 4 0 3 2 3 3 1 2 1 5 5 9 5 8 8 5 4
14 15 18 23 18 13 10 12 12 8 8 12 21 18 18 17 14 11 7 6 8 9 7 8 6 9 10 6 4 3 3 3 2 6 6 4 4 4 2 4 4 4 4 4 4 4 4 5 3
20 16 19 25 24 4 4 16 17 11 2 19 19 18 18 19 16 16 15 12 8 8 6 6 6 7 5 5 2 4 3 4 5 6 7 5 3 4 5 5 5 5 4 4 4 2 3 6 7
20 19 21 22 12 7 6 8 7 4 13 20 20 19 18 17 16 14 12 11 10 8 8 6 6 6 5 6 3 6 7 6 6 6 7 6 6 5 6 5 3 3 4 4 5 5 6 6 6
6 18 20 22 11 13 6 9 9 4 13 18 19 17 11 11 10 7 10 10 9 7 9 9 8 8 7 8 10 7 7 6 6 6 6 7 5 5 3 3 4 5 5 5 5 5 5 5 5
10 12 19 19 16 13 5 5 2 13 11 16 15 14 13 11 8 8 7 8 6 6 5 6 6 8 13 12 9 7 6 6 6 6 6 6 6 4 6 5 5 5 5 7 6 7 6 6 6
6 12 7 17 21 10 11 15 11 11 13 15 14 12 11 10 8 6 7 7 5 5 3 5 3 12 12 10 8 7 6 6 5 5 4 5 6 6 7 6 5 5 5 6 4 4 4 5 5
3 3 12 17 25 12 14 8 13 13 12 14 12 12 12 11 9 6 5 5 6 5 4 6 5 12 13 12 9 9 8 6 5 4 4 8 8 8 6 5 5 6 6 6 6 5 4 5 6
7 5 8 14 17 16 17 6 15 14 15 13 13 12 11 10 10 8 6 5 5 6 5 5 10 12 12 9 9 7 7 5 5 6 7 7 7 8 6 6 6 6 5 6 6 5 5 4 5
6 4 6 7 14 19 17 11 16 14 14 15 13 12 11 11 10 7 6 6 8 8 6 7 11 11 9 8 8 6 5 5 7 7 8 8 7 8 6 5 6 5 6 5 6 5 5 7 9
10 4 5 2 7 10 14 10 15 16 14 15 16 14 14 11 10 9 6 5 9 7 6 9 10 9 7 5 6 5 7 6 6 6 8 7 7 8 7 6 5 6 5 7 8 6 4 4 7
14 13 6 3 2 3 10 6 16 11 9 10 12 14 14 14 13 10 9 9 8 8 7 8 9 9 8 9 8 8 9 7 5 5 5 6 7 7 7 6 5 6 5 5 5 6 7 4 5
12 12 10 6 2 2 7 5 12 12 12 11 10 8 16 15 13 9 8 9 7 8 8 9 9 9 8 8 8 9 7 7 4 4 4 5 7 7 6 6 6 6 4 6 5 6 5 5 5
9 8 16 6 6 2 5 3 5 14 12 16 16 12 7 13 11 11 8 8 8 9 8 9 10 7 5 6 5 8 10 6 5 4 6 6 6 6 6 6 6 6 4 5 6 6 6 5 4
3 10 11 10 4 4 8 4 3 11 16 13 13 17 13 11 11 10 8 8 9 8 9 10 9 8 7 7 5 11 11 8 7 5 5 4 4 4 6 6 5 5 5 5 5 5 6 5 5
4 2 3 4 4 3 14 10 6 3 7 17 20 18 17 15 12 13 10 8 8 10 6 11 12 7 7 7 7 8 8 9 8 6 4 5 3 4 5 5 5 4 5 5 5 5 6 5 4
7 5 2 5 6 6 7 8 5 3 9 11 19 16 17 15 12 10 10 9 10 10 8 13 12 9 6 9 7 7 7 5 5 5 5 4 4 4 5 5 5 6 5 4 5 4 4 5 4
3 9 1 1 1 3 2 2 4 7 2 2 14 16 17 15 13 13 10 8 10 8 10 11 14 9 8 7 7 6 7 7 6 7 7 3 5 5 5 6 5 5 4 5 5 4 3 3 3
3 2 3 3 1 2 3 3 4 7 9 10 13 15 14 14 13 12 10 11 9 8 9 9 8 10 8 8 8 6 6 7 6 5 6 5 5 5 5 5 5 4 4 3 3 3 2 3 2
3 3 4 3 4 2 3 3 4 4 17 21 17 16 18 16 15 12 13 13 13 7 9 11 7 9 7 8 6 7 7 6 6 5 5 5 5 5 5 4 4 3 2 2 3 3 0 2 3
2 6 6 3 3 2 2 2 4 5 4 7 15 14 13 11 13 13 11 12 13 10 10 9 7 9 6 6 6 7 6 6 5 5 5 5 5 4 4 3 3 2 0 2 2 2 2 3 4
Wind_Direction
301 242 227 289 253 230 242 241 81 108 104 62 47 62 93 33 22 115 160 112 126 129 136 135 126 122 112 107 107 108 108 106 104 100 95 88 83 78 74 70 64 60 59 57 51 45 43 39 34
300 269 237 275 232 236 245 231 161 104 100 101 88 145 60 86 74 124 125 128 128 133 150 138 132 126 119 115 113 111 110 108 104 99 95 89 84 78 74 67 59 48 45 42 43 37 30 29 21
287 273 247 206 231 244 233 174 152 105 131 147 106 39 58 93 135 159 138 133 142 154 136 132 135 133 128 125 121 115 111 104 99 96 92 86 81 77 72 65 59 52 47 38 38 30 29 20 14
281 234 275 235 227 233 263 169 123 134 146 165 103 89 77 102 134 149 155 137 145 136 116 133 140 142 132 127 122 117 114 108 102 98 92 88 84 78 72 63 51 34 30 33 24 21 16 10 6
252 269 240 221 240 249 243 30 129 146 149 166 130 101 88 84 128 140 143 143 148 121 122 133 138 143 130 126 125 122 118 115 112 107 99 91 84 70 53 42 34 28 22 15 13 10 6 359 355
287 245 253 238 217 247 244 144 157 169 163 124 86 107 92 304 138 143 153 127 101 114 116 125 127 127 125 129 127 121 118 115 111 108 103 97 84 72 59 41 29 19 12 5 2 359 353 345 340
258 274 251 256 239 222 203 204 208 193 127 154 136 90 111 214 144 150 144 120 115 115 116 120 125 123 120 127 125 121 119 116 112 101 88 82 95 114 110 72 1 353 348 344 348 347 341 334 322
276 276 264 249 250 232 195 180 219 197 58 72 60 144 161 187 147 151 145 135 131 138 138 138 129 136 125 127 119 119 117 112 107 108 122 206 235 226 218 216 231 329 332 336 342 336 325 311 303
274 270 262 246 247 245 169 167 196 98 115 62 24 168 137 171 143 141 138 125 121 131 130 141 150 151 140 128 119 117 121 137 155 177 209 234 233 206 186 134 15 311 308 303 301 301 312 318 311
228 263 256 258 241 251 201 168 133 142 117 105 84 88 128 160 121 119 144 136 122 117 88 61 162 135 136 140 159 168 162 184 160 130 186 236 27 71 6 261 308 316 309 309 299 303 326 313 11
239 242 263 278 266 242 217 188 155 183 176 156 151 145 152 127 131 145 142 138 136 135 134 190 188 138 153 145 155 127 146 138 124 58 31 15 9 19 18 49 44 16 21 8 5 16 22 9 355
262 238 249 263 281 256 260 179 176 182 138 140 142 147 147 148 161 165 158 172 150 120 136 89 61 84 80 100 148 157 115 80 59 47 26 10 10 37 51 47 26 16 345 358 359 28 44 27 10
267 271 246 261 275 294 273 122 110 67 99 121 134 150 163 156 159 174 147 159 135 148 152 147 164 143 166 184 136 78 66 60 57 48 31 24 33 38 47 45 34 10 347 2 9 29 26 25 4
317 313 294 262 254 279 247 125 124 118 121 127 145 157 155 133 106 95 119 127 128 162 155 163 200 167 169 81 71 77 73 76 67 56 40 35 46 58 50 39 33 24 12 358 29 16 28 15 4
244 292 304 276 244 208 183 141 239 136 144 141 140 126 121 116 110 114 114 86 92 85 57 131 185 92 85 81 79 72 70 70 68 62 52 56 64 52 54 54 34 16 19 16 35 22 17 11 360
236 244 254 259 245 195 159 206 144 153 157 141 133 128 127 117 106 89 71 89 76 91 122 79 47 98 92 93 90 85 79 75 67 60 48 39 42 52 57 50 29 22 24 17 16 35 21 15 6
226 235 246 274 236 184 187 178 160 162 171 153 145 146 141 131 123 119 120 134 137 145 138 135 124 109 106 100 93 86 85 80 79 77 58 44 39 52 56 50 36 33 31 22 5 23 30 17 353
167 193 243 258 224 199 198 193 152 175 168 162 157 155 150 147 144 137 123 105 104 111 67 74 114 112 110 110 102 95 90 89 80 71 60 54 49 43 45 33 40 37 40 28 15 4 29 29 344
204 163 254 319 333 339 200 168 167 183 178 166 166 162 158 143 135 132 131 130 93 67 69 119 120 125 126 125 123 111 110 100 85 67 63 52 48 53 44 44 36 39 47 34 21 360 23 26 1
226 151 216 246 6 345 282 199 170 178 190 180 168 165 155 137 144 140 135 124 97 99 64 109 112 121 126 125 115 114 121 94 88 83 68 58 54 48 61 55 42 37 37 30 24 25 4 33 27
235 216 199 159 354 230 316 267 162 184 174 183 178 164 153 152 147 138 141 118 111 101 94 89 92 95 95 105 106 108 106 110 100 77 73 62 61 57 52 53 55 50 44 41 29 24 30 28 13
262 210 156 149 89 226 69 318 238 174 184 180 180 175 155 153 135 142 138 116 116 108 109 100 100 105 104 115 129 137 120 113 93 103 96 78 66 59 59 54 55 57 48 48 33 25 36 33 23
239 278 201 146 140 141 135 251 264 174 199 187 176 161 152 130 129 134 134 119 117 117 110 106 115 101 121 147 152 109 112 109 113 106 99 96 78 72 61 61 60 61 49 51 58 28 32 40 46
164 213 171 158 151 214 157 167 263 191 221 189 178 165 147 116 123 123 108 117 114 112 126 112 104 103 129 119 117 117 116 134 127 123 113 107 100 75 65 71 63 66 57 53 56 54 39 43 46
163 256 198 188 183 227 155 155 261 243 291 188 182 165 146 147 163 134 153 155 140 114 111 118 110 112 90 99 102 107 115 111 112 117 116 114 109 91 77 78 70 65 72 56 55 48 51 39 52
213 214 284 190 178 150 164 180 195 314 307 237 171 163 143 154 152 150 162 175 137 137 172 128 130 114 107 90 93 87 92 95 95 104 100 106 98 104 101 86 76 67 60 71 68 50 42 50 30
187 207 0 134 238 68 150 217 245 125 300 163 149 146 156 159 156 156 157 144 133 159 158 133 125 125 115 114 97 98 88 99 96 94 95 105 115 115 93 94 93 85 74 58 87 81 38 22 43
234 345 280 321 39 103 238 222 168 175 174 164 161 162 157 146 143 146 148 136 122 173 118 103 111 121 118 122 109 100 103 93 100 93 101 107 107 100 101 89 90 86 78 61 59 72 56 10 1
182 265 228 138 261 175 156 236 5 194 184 184 181 170 163 157 148 152 149 138 135 144 117 112 115 113 121 100 110 112 107 103 108 110 115 115 104 101 104 107 105 101 94 64 30 22 240 344 316
281 236 202 159 249 337 81 321 1 1 358 158 166 167 165 169 160 156 151 143 140 150 128 129 140 121 120 125 126 119 114 115 116 121 121 117 111 104 122 126 137 142 95 40 3 315 317 294 302